MDT,Max TemperatureF,Mean TemperatureF,Min TemperatureF,Max Dew PointF,MeanDew PointF,Min DewpointF,Max Humidity, Mean Humidity, Min Humidity, Max Sea Level PressureIn, Mean Sea Level PressureIn, Min Sea Level PressureIn, Max VisibilityMiles, Mean VisibilityMiles, Min VisibilityMiles, Max Wind SpeedMPH, Mean Wind SpeedMPH, Max Gust SpeedMPH,PrecipitationIn, CloudCover, Events, WindDirDegrees
2012-10-1,79,58,36,35,30,27,79,42,15,30.31,30.12,29.78,10,10,10,30,9,36,0.00,0,,274
2012-10-2,80,67,50,30,25,13,35,22,10,29.80,29.73,29.62,10,10,10,31,21,43,0.00,0,,267
2012-10-3,45,39,33,34,31,30,93,85,63,30.51,30.29,29.81,10,4,0,22,9,28,0.39,8,Fog-Rain-Snow,331
2012-10-4,42,38,33,32,30,28,89,80,57,30.48,30.35,30.27,10,10,2,16,11,,0.00,8,Snow,91
2012-10-5,39,34,30,31,28,26,89,82,65,30.49,30.37,30.30,10,6,1,20,11,24,0.04,8,Snow,93
2012-10-6,48,32,17,24,18,12,92,61,24,30.51,30.39,30.25,10,10,10,17,8,25,0.00,2,,258
2012-10-7,63,48,35,26,23,20,61,40,21,30.22,30.06,29.94,10,10,10,26,14,36,0.00,1,,268
2012-10-8,60,47,35,37,27,18,89,52,23,30.07,29.94,29.85,10,10,8,22,13,26,0.01,4,Rain,295
2012-10-9,57,46,34,35,31,22,89,71,28,30.18,30.11,30.05,10,10,10,16,5,22,0.00,5,,281
2012-10-10,73,50,30,37,28,23,79,51,16,30.08,29.97,29.81,10,10,10,20,11,28,0.00,1,,332
2012-10-11,44,40,37,36,35,33,93,83,71,30.22,30.12,30.01,10,10,5,20,15,28,0.00,8,,82
2012-10-12,78,54,30,34,28,21,93,57,14,30.05,29.85,29.66,10,8,0,25,11,33,0.00,2,Fog,293
2012-10-13,62,52,43,36,29,23,54,41,27,30.11,29.93,29.75,10,10,10,24,12,32,0.00,5,,262
2012-10-14,73,58,46,33,30,26,54,35,19,30.17,30.04,29.84,10,10,10,36,19,50,0.00,1,,245
2012-10-15,66,58,52,43,36,31,58,44,32,29.88,29.79,29.75,10,10,10,36,26,51,0.02,4,Rain,246
2012-10-16,64,52,43,45,32,16,82,47,25,29.83,29.56,29.36,10,10,8,44,27,68,0.05,4,Rain-Thunderstorm,257
2012-10-17,53,44,36,20,16,12,45,34,20,30.21,30.00,29.84,10,10,10,38,25,48,0.00,2,,268
2012-10-18,62,44,28,22,16,7,58,33,13,30.29,30.17,29.98,10,10,10,28,15,38,0.00,0,,271
2012-10-19,70,60,51,28,22,19,32,26,17,29.97,29.75,29.57,10,10,10,43,30,54,0.00,1,,228
2012-10-20,64,50,39,42,33,24,83,50,29,29.80,29.59,29.45,10,10,10,29,17,40,0.01,7,Rain,284
2012-10-21,50,44,37,31,26,22,76,57,43,29.90,29.84,29.78,10,10,10,17,6,23,0.00,5,,72
2012-10-22,39,32,25,32,30,22,93,87,67,29.89,29.72,29.60,10,6,0,17,6,,0.09,6,Fog-Snow,102
2012-10-23,48,40,32,34,30,25,93,80,47,29.94,29.76,29.63,10,7,1,30,10,39,0.11,7,Rain-Snow-Thunderstorm,267
2012-10-24,41,32,26,27,24,21,93,81,47,30.10,30.02,29.94,10,10,5,13,5,,0.00,7,Snow,340
2012-10-25,30,27,24,25,22,17,93,81,69,30.50,30.26,30.12,10,6,2,14,10,,0.00,8,Snow,84
2012-10-26,45,32,19,19,17,13,85,55,30,30.48,30.30,30.10,10,10,10,28,13,41,0.00,4,,265
2012-10-27,50,39,30,30,25,18,93,63,34,30.12,30.05,29.98,10,9,1,25,10,32,0.00,7,Snow,287
2012-10-28,57,50,42,35,33,26,73,51,40,29.96,29.87,29.79,10,10,10,34,20,51,0.01,5,Rain,244
2012-10-29,64,57,51,44,38,34,74,53,37,30.00,29.90,29.86,10,10,10,32,17,43,0.11,6,Rain,239
2012-10-30,66,56,46,34,31,27,56,40,23,30.05,29.97,29.89,10,10,10,31,15,44,0.00,2,,245
2012-10-31,70,60,50,34,31,27,54,36,21,29.99,29.91,29.83,10,10,10,26,15,34,0.00,0,,199